Location: Choisy
(48.7685°N, 2.4187°E)
Time: 18:15:55
(UTC+00:00)

Envisat - Pass Details

Date: 07 March 2024
Orbit: 762 x 764 km, 98.3° (Epoch: 23 April)

Event Time Altitude Azimuth Distance (km) Brightness Sun altitude
Rises 04:53:22 0° 3° (N) 3,243 6.4 -15.0°
Reaches altitude 10° 04:56:14 10° 347° (NNW) 2,312 5.4 -14.5°
Maximum altitude 04:59:48 20° 302° (WNW) 1,730 4.4 -13.9°
Enters shadow 05:01:02 18° 283° (WNW) 1,806 4.4 -13.7°
